| time (UTC) | temp F | wind direction | speed MPH | gust MPH | rain 1hr in | rain 24hr in | rain mn in | humidity % | barometer mb |
| 20260505041549 | 46 | 226 | 1.0 | 8.0 | 0.00 | 0.28 | 0.00 | 82 | 1006.5 |
| 20260505040045 | 47 | 192 | 3.0 | 11.0 | 0.00 | 0.28 | 0.00 | 80 | 1006.3 |
| 20260505034541 | 48 | 266 | 4.0 | 12.0 | 0.00 | 0.30 | 0.00 | 79 | 1006.2 |
| 20260505033041 | 48 | 282 | 6.0 | 15.0 | 0.00 | 0.30 | 0.00 | 78 | 1005.8 |
| 20260505031550 | 48 | 251 | 5.0 | 17.0 | 0.00 | 0.30 | 0.00 | 77 | 1005.7 |
| 20260505030031 | 49 | 222 | 4.0 | 19.0 | 0.00 | 0.30 | 0.00 | 76 | 1005.6 |
| 20260505024544 | 49 | 243 | 3.0 | 14.0 | 0.00 | 0.30 | 0.30 | 77 | 1005.2 |
| 20260505023038 | 49 | 312 | 4.0 | 13.0 | 0.00 | 0.30 | 0.30 | 78 | 1005.1 |
| 20260505021527 | 48 | 291 | 3.0 | 11.0 | 0.00 | 0.30 | 0.30 | 78 | 1005.0 |
| 20260505020026 | 48 | 247 | 4.0 | 12.0 | 0.00 | 0.30 | 0.30 | 77 | 1004.9 |
| 20260505014535 | 48 | 241 | 4.0 | 16.0 | 0.00 | 0.32 | 0.30 | 76 | 1004.7 |
| 20260505013025 | 48 | 228 | 4.0 | 13.0 | 0.00 | 0.32 | 0.30 | 76 | 1004.9 |
| 20260505011524 | 49 | 259 | 5.0 | 17.0 | 0.00 | 0.32 | 0.30 | 76 | 1004.8 |
| 20260505010023 | 49 | 208 | 5.0 | 11.0 | 0.00 | 0.32 | 0.30 | 75 | 1004.8 |
| 20260505004524 | 50 | 284 | 4.0 | 14.0 | 0.00 | 0.38 | 0.30 | 73 | 1004.7 |
| 20260505003021 | 49 | 193 | 5.0 | 17.0 | 0.00 | 0.38 | 0.30 | 72 | 1004.6 |
| 20260505001519 | 50 | 264 | 6.0 | 16.0 | 0.00 | 0.38 | 0.30 | 71 | 1004.5 |
| 20260505000017 | 50 | 262 | 7.0 | 16.0 | 0.00 | 0.38 | 0.30 | 67 | 1004.2 |
| 20260504234517 | 51 | 214 | 7.0 | 22.0 | 0.00 | 0.51 | 0.30 | 62 | 1003.7 |
| 20260504233013 | 50 | 234 | 2.0 | 13.0 | 0.00 | 0.51 | 0.30 | 65 | 1003.2 |
| 20260504231512 | 50 | 211 | 3.0 | 14.0 | 0.00 | 0.51 | 0.30 | 66 | 1002.9 |
| 20260504230011 | 50 | 256 | 2.0 | 14.0 | 0.00 | 0.51 | 0.30 | 64 | 1003.0 |
| 20260504224510 | 50 | 255 | 3.0 | 15.0 | 0.00 | 0.64 | 0.30 | 62 | 1002.9 |
| 20260504223009 | 51 | 222 | 4.0 | 11.0 | 0.00 | 0.64 | 0.30 | 61 | 1002.8 |
| 20260504221510 | 52 | 276 | 5.0 | 14.0 | 0.00 | 0.64 | 0.30 | 60 | 1002.7 |
| 20260504220007 | 53 | 224 | 4.0 | 21.0 | 0.00 | 0.64 | 0.30 | 60 | 1002.6 |
| 20260504214505 | 53 | 259 | 7.0 | 15.0 | 0.00 | 0.76 | 0.30 | 59 | 1002.3 |
| 20260504213004 | 53 | 294 | 8.0 | 17.0 | 0.00 | 0.76 | 0.30 | 60 | 1002.3 |
| 20260504211508 | 52 | 232 | 8.0 | 20.0 | 0.00 | 0.76 | 0.30 | 59 | 1002.1 |
| 20260504210003 | 53 | 214 | 10.0 | 24.0 | 0.00 | 0.84 | 0.30 | 58 | 1002.2 |
| 20260504204627 | 53 | 234 | 8.0 | 20.0 | 0.00 | 0.84 | 0.30 | 58 | 1002.0 |
| 20260504203134 | 53 | 298 | 10.0 | 27.0 | 0.00 | 0.84 | 0.30 | 57 | 1001.6 |
| 20260504201555 | 53 | 281 | 7.0 | 28.0 | 0.00 | 0.84 | 0.30 | 62 | 1001.5 |
| 20260504200053 | 52 | 262 | 5.0 | 22.0 | 0.00 | 0.84 | 0.30 | 64 | 1001.3 |
| 20260504194550 | 53 | 305 | 8.0 | 32.0 | 0.00 | 0.86 | 0.30 | 65 | 1000.7 |
| 20260504193050 | 53 | 306 | 7.0 | 24.0 | 0.00 | 0.86 | 0.30 | 70 | 1000.6 |
| 20260504191545 | 52 | 259 | 9.0 | 32.0 | 0.00 | 0.86 | 0.30 | 73 | 1000.1 |
| 20260504190042 | 51 | 289 | 11.0 | 23.0 | 0.00 | 0.86 | 0.30 | 76 | 999.9 |
| 20260504184540 | 50 | 315 | 9.0 | 20.0 | 0.00 | 0.91 | 0.30 | 78 | 999.8 |
| 20260504183036 | 49 | 296 | 6.0 | 26.0 | 0.00 | 0.91 | 0.30 | 82 | 999.5 |
| 20260504181534 | 48 | 289 | 9.0 | 20.0 | 0.00 | 0.91 | 0.30 | 84 | 999.4 |
| 20260504180030 | 46 | 233 | 8.0 | 24.0 | 0.00 | 0.91 | 0.30 | 87 | 999.2 |
| 20260504174528 | 45 | 229 | 10.0 | 29.0 | 0.00 | 0.91 | 0.30 | 89 | 999.0 |
| 20260504173025 | 45 | 271 | 7.0 | 26.0 | 0.00 | 0.91 | 0.30 | 89 | 998.6 |
| 20260504171522 | 45 | 322 | 9.0 | 22.0 | 0.00 | 0.91 | 0.30 | 91 | 998.4 |
| 20260504150104 | 41 | 282 | 11.0 | 25.0 | 0.03 | 0.90 | 0.28 | 97 | 995.5 |
| 20260504100105 | 37 | 311 | 10.0 | 26.0 | 0.00 | 0.73 | 0.12 | 98 | 982.6 |
| 20260504081548 | 37 | 318 | 4.0 | 21.0 | 0.02 | 0.71 | 0.10 | 99 | 978.7 |
| 20260504044524 | 39 | 142 | 3.0 | 11.0 | 0.02 | 0.63 | 0.02 | 99 | 974.8 |
| 20260504043019 | 39 | 157 | 4.0 | 10.0 | 0.01 | 0.62 | 0.01 | 99 | 975.2 |